Regional Weather Roundup
Issued by NWS

Home | Current Version | Previous Version | Graphics & Text | Print | Product List | Glossary On
Versions: 1 2 3 4 5 6 7 8 9 10 11 12 13 14 15 16 17 18 19 20 21 22 23 24 25 26 27 28 29 30 31 32 33 34 35 36 37 38 39 40 41 42 43 44 45 46 47 48 49 50
000
ASUS43 KFSD 290502
RWRSD

WEATHER ROUNDUP FOR SOUTH DAKOTA
NATIONAL WEATHER SERVICE SIOUX FALLS SD
1200 AM CDT MON AUG 29 2016

NOTE: "FAIR" INDICATES FEW OR NO CLOUDS BELOW 12,000 FEET WITH NO
SIGNIFICANT WEATHER AND/OR OBSTRUCTIONS TO VISIBILITY.


SDZ001>005-009-010-012>017-290600-
NORTHWEST AND NORTH CENTRAL SOUTH DAKOTA

CITY           SKY/WX    TMP DP  RH WIND       PRES   REMARKS
FAITH            N/A     73  50  44 S9        30.03R
MOBRIDGE       CLEAR     69  58  67 SE3       29.96R
$$

SDZ012>016-024>037-041>051-057-063-072>074-290600-
SOUTHWEST AND SOUTH CENTRAL SOUTH DAKOTA

CITY           SKY/WX    TMP DP  RH WIND       PRES   REMARKS
RAPID CTY ARPT CLEAR     63  51  65 CALM      30.07R
PIERRE         CLEAR     74  61  63 S12       29.98R
CUSTER         CLEAR     61  40  45 CALM      30.25R
ELLSWORTH AFB  CLEAR     72  50  45 E3        30.08R
PHILIP         CLEAR     67  60  78 E3        30.01R
PINE RIDGE     CLEAR     68  56  65 SW5       30.10R
WINNER         FAIR      79  63  57 S18G28    30.05S
$$

SDZ004>011-016>023-039-040-290600-
NORTHEAST SOUTH DAKOTA

CITY           SKY/WX    TMP DP  RH WIND       PRES   REMARKS
ABERDEEN       CLEAR     76  67  73 S12       29.98S
WATERTOWN      CLEAR     75  70  84 S12       30.05S
BROOKINGS        N/A    N/A N/A N/A MISG        N/A
$$

SDZ017-020-022-023-036>040-048>070-290600-
SOUTHEAST SOUTH DAKOTA

CITY           SKY/WX    TMP DP  RH WIND       PRES   REMARKS
SIOUX FALLS    PTCLDY    76  65  68 S14       30.10R
HURON          CLEAR     77  69  76 S10       30.02R
CHAMBERLAIN    CLEAR     79  65  61 S13       30.04R
MITCHELL       CLEAR     78  71  79 S13       30.05S
YANKTON        CLEAR     73  64  73 S9        30.07F
$$

ABBREVIATIONS USED IN REMARKS
   TC - TEMPERATURE IN CELSIUS
  WCI - WIND CHILL INDEX
   HX - HEAT INDEX
  VSB - VISIBILITY




USA.gov is the U.S. government's official web portal to all federal, state and local government web resources and services.